When you browse on this site, cookies collect data to enhance your experience and personalize the content and advertising you see.
Visit our Privacy Policy to learn more. By continuing to use the site, you agree to this use of cookies and data.
  • en Suisse
  • Liste des pays
  • À 7 jours
  • Température de l'eau
  • Carte météo
  • Widgets météo
  • user-avatar
    Se connecter

    Météo par heure à Adélaïde

    Ce jour, 27 Mai, Mercredi

    Heure Température Précipitation Vent Pression Humidité
    00:00 +13°C° 0 mm 5 m/s 759 mmHg 55%
    01:00 +13°C° 0 mm 5 m/s 759 mmHg 56%
    02:00 +13°C° 0 mm 5 m/s 759 mmHg 57%
    03:00 +13°C° 0 mm 5 m/s 759 mmHg 54%
    04:00 +13°C° 0 mm 5 m/s 759 mmHg 59%
    05:00 +13°C° 0 mm 5 m/s 759 mmHg 63%
    06:00 +13°C° 0 mm 5 m/s 759 mmHg 67%
    07:00 +13°C° 0 mm 5 m/s 760 mmHg 69%
    08:00 +13°C° 0 mm 5 m/s 760 mmHg 71%
    09:00 +14°C° 0 mm 5 m/s 760 mmHg 73%
    10:00 +14°C° 0 mm 5 m/s 760 mmHg 73%
    11:00 +15°C° 0 mm 5 m/s 760 mmHg 73%
    12:00 +15°C° 0 mm 5 m/s 760 mmHg 73%
    13:00 +15°C° 0 mm 5 m/s 759 mmHg 74%
    14:00 +15°C° 0 mm 4 m/s 759 mmHg 75%
    15:00 +17°C° 0 mm 4 m/s 759 mmHg 76%
    16:00 +15°C° 0.2 mm 4 m/s 759 mmHg 80%
    17:00 +14°C° 0.2 mm 3 m/s 760 mmHg 85%
    18:00 +13°C° 0.2 mm 3 m/s 760 mmHg 89%
    19:00 +14°C° 0.1 mm 2 m/s 760 mmHg 90%
    20:00 +14°C° 0.1 mm 2 m/s 761 mmHg 90%
    21:00 +13°C° 0.1 mm 1 m/s 761 mmHg 91%
    22:00 +13°C° 0.1 mm 1 m/s 761 mmHg 91%
    23:00 +13°C° 0.1 mm 1 m/s 761 mmHg 91%

    Demain, 28 Mai, Jeudi

    Heure Température Précipitation Vent Pression Humidité
    00:00 +13°C° 0.1 mm 1 m/s 761 mmHg 91%
    01:00 +13°C° 0 mm 1 m/s 761 mmHg 91%
    02:00 +12°C° 0 mm 1 m/s 761 mmHg 92%
    03:00 +12°C° 0 mm 2 m/s 761 mmHg 93%
    04:00 +12°C° 0 mm 2 m/s 762 mmHg 93%
    05:00 +12°C° 0 mm 2 m/s 762 mmHg 93%
    06:00 +12°C° 0 mm 2 m/s 762 mmHg 93%
    07:00 +13°C° 0.1 mm 2 m/s 763 mmHg 90%
    08:00 +13°C° 0.1 mm 3 m/s 763 mmHg 88%
    09:00 +13°C° 0.1 mm 3 m/s 763 mmHg 85%
    10:00 +14°C° 0.1 mm 3 m/s 763 mmHg 80%
    11:00 +14°C° 0.1 mm 3 m/s 763 mmHg 74%
    12:00 +16°C° 0.1 mm 3 m/s 763 mmHg 69%
    13:00 +16°C° 0 mm 3 m/s 763 mmHg 67%
    14:00 +16°C° 0 mm 3 m/s 763 mmHg 65%
    15:00 +16°C° 0 mm 3 m/s 763 mmHg 63%
    16:00 +14°C° 0 mm 3 m/s 763 mmHg 66%
    17:00 +14°C° 0 mm 2 m/s 764 mmHg 69%
    18:00 +13°C° 0 mm 2 m/s 764 mmHg 73%
    19:00 +13°C° 0 mm 2 m/s 764 mmHg 74%
    20:00 +12°C° 0 mm 1 m/s 764 mmHg 76%
    21:00 +12°C° 0 mm 1 m/s 765 mmHg 77%
    22:00 +12°C° 0 mm 2 m/s 765 mmHg 79%
    23:00 +10°C° 0 mm 2 m/s 764 mmHg 81%

    Après-demain, 29 Mai, Vendredi

    Heure Température Précipitation Vent Pression Humidité
    00:00 +10°C° 0 mm 2 m/s 764 mmHg 82%
    01:00 +10°C° 0 mm 2 m/s 764 mmHg 82%
    02:00 +10°C° 0 mm 3 m/s 764 mmHg 81%
    03:00 +10°C° 0 mm 3 m/s 764 mmHg 81%
    04:00 +10°C° 0 mm 3 m/s 764 mmHg 80%
    05:00 +10°C° 0 mm 3 m/s 764 mmHg 79%
    06:00 +10°C° 0 mm 3 m/s 765 mmHg 78%
    07:00 +11°C° 0 mm 3 m/s 765 mmHg 73%
    08:00 +12°C° 0 mm 4 m/s 765 mmHg 68%
    09:00 +13°C° 0 mm 4 m/s 765 mmHg 63%
    10:00 +15°C° 0 mm 4 m/s 764 mmHg 59%
    11:00 +16°C° 0 mm 5 m/s 764 mmHg 55%
    12:00 +17°C° 0 mm 5 m/s 764 mmHg 52%
    13:00 +18°C° 0 mm 4 m/s 763 mmHg 52%
    14:00 +18°C° 0 mm 4 m/s 763 mmHg 52%
    15:00 +18°C° 0 mm 4 m/s 762 mmHg 52%
    16:00 +17°C° 0 mm 4 m/s 762 mmHg 55%
    17:00 +16°C° 0 mm 3 m/s 762 mmHg 59%
    18:00 +13°C° 0 mm 3 m/s 762 mmHg 62%
    19:00 +13°C° 0 mm 4 m/s 762 mmHg 60%
    20:00 +13°C° 0 mm 4 m/s 762 mmHg 57%
    21:00 +13°C° 0 mm 5 m/s 761 mmHg 54%
    22:00 +13°C° 0 mm 5 m/s 761 mmHg 53%
    23:00 +13°C° 0 mm 5 m/s 761 mmHg 52%

    30 Mai, Samedi

    Heure Température Précipitation Vent Pression Humidité
    00:00 +14°C° 0 mm 5 m/s 760 mmHg 51%
    01:00 +14°C° 0 mm 5 m/s 760 mmHg 51%
    02:00 +14°C° 0 mm 6 m/s 759 mmHg 51%
    03:00 +14°C° 0 mm 6 m/s 759 mmHg 51%
    04:00 +14°C° 0 mm 6 m/s 759 mmHg 51%
    05:00 +14°C° 0 mm 7 m/s 758 mmHg 51%
    06:00 +14°C° 0 mm 7 m/s 758 mmHg 51%
    07:00 +13°C° 0 mm 8 m/s 758 mmHg 49%
    08:00 +15°C° 0 mm 8 m/s 757 mmHg 48%
    09:00 +16°C° 0 mm 9 m/s 757 mmHg 47%
    10:00 +16°C° 0.2 mm 10 m/s 756 mmHg 51%
    11:00 +14°C° 0.2 mm 11 m/s 756 mmHg 55%
    12:00 +14°C° 0.2 mm 12 m/s 755 mmHg 59%
    13:00 +14°C° 0.8 mm 12 m/s 755 mmHg 64%
    14:00 +13°C° 0.8 mm 11 m/s 754 mmHg 68%
    15:00 +12°C° 0.8 mm 11 m/s 754 mmHg 73%
    16:00 +13°C° 0.1 mm 10 m/s 754 mmHg 72%
    17:00 +13°C° 0.1 mm 9 m/s 754 mmHg 71%
    18:00 +13°C° 0.1 mm 8 m/s 754 mmHg 70%
    19:00 +14°C° 0.2 mm 7 m/s 755 mmHg 74%
    20:00 +14°C° 0.2 mm 6 m/s 755 mmHg 77%
    21:00 +13°C° 0.2 mm 5 m/s 756 mmHg 81%
    22:00 +13°C° 0 mm 6 m/s 756 mmHg 80%
    23:00 +13°C° 0 mm 6 m/s 757 mmHg 79%

    31 Mai, Dimanche

    Heure Température Précipitation Vent Pression Humidité
    00:00 +11°C° 0 mm 6 m/s 757 mmHg 78%
    01:00 +11°C° 0.1 mm 6 m/s 757 mmHg 77%
    02:00 +11°C° 0.1 mm 6 m/s 757 mmHg 77%
    03:00 +11°C° 0.1 mm 6 m/s 757 mmHg 76%
    04:00 +11°C° 0.1 mm 6 m/s 758 mmHg 76%
    05:00 +10°C° 0.1 mm 5 m/s 758 mmHg 75%
    06:00 +10°C° 0.1 mm 5 m/s 758 mmHg 74%
    07:00 +12°C° 0 mm 5 m/s 759 mmHg 71%
    08:00 +11°C° 0 mm 6 m/s 759 mmHg 68%
    09:00 +13°C° 0 mm 6 m/s 759 mmHg 64%
    10:00 +13°C° 0 mm 6 m/s 759 mmHg 64%
    11:00 +14°C° 0 mm 7 m/s 758 mmHg 63%
    12:00 +14°C° 0 mm 7 m/s 758 mmHg 63%
    13:00 +14°C° 0.1 mm 7 m/s 758 mmHg 65%
    14:00 +13°C° 0.1 mm 8 m/s 757 mmHg 67%
    15:00 +13°C° 0.1 mm 8 m/s 757 mmHg 70%
    16:00 +13°C° 0.1 mm 8 m/s 757 mmHg 72%
    17:00 +12°C° 0.1 mm 8 m/s 757 mmHg 75%
    18:00 +12°C° 0.1 mm 7 m/s 757 mmHg 78%
    19:00 +12°C° 0.1 mm 8 m/s 757 mmHg 79%
    20:00 +13°C° 0.1 mm 9 m/s 757 mmHg 80%
    21:00 +13°C° 0.1 mm 9 m/s 757 mmHg 81%
    22:00 +13°C° 0.5 mm 9 m/s 757 mmHg 81%
    23:00 +13°C° 0.5 mm 8 m/s 757 mmHg 82%

    1 Juin, Lundi

    Heure Température Précipitation Vent Pression Humidité
    00:00 +13°C° 0.5 mm 8 m/s 757 mmHg 83%
    01:00 +14°C° 0.4 mm 7 m/s 757 mmHg 83%
    02:00 +14°C° 0.4 mm 7 m/s 758 mmHg 84%
    03:00 +14°C° 0.4 mm 7 m/s 758 mmHg 84%
    04:00 +13°C° 0.1 mm 6 m/s 758 mmHg 84%
    05:00 +12°C° 0.1 mm 5 m/s 759 mmHg 83%
    06:00 +12°C° 0.1 mm 4 m/s 759 mmHg 83%
    07:00 +13°C° 0 mm 4 m/s 760 mmHg 79%
    08:00 +13°C° 0 mm 4 m/s 761 mmHg 76%
    09:00 +14°C° 0 mm 4 m/s 761 mmHg 72%
    10:00 +14°C° 0 mm 4 m/s 761 mmHg 68%
    11:00 +14°C° 0 mm 3 m/s 761 mmHg 65%
    12:00 +16°C° 0 mm 3 m/s 762 mmHg 61%
    13:00 +14°C° 0 mm 3 m/s 762 mmHg 63%
    14:00 +14°C° 0 mm 3 m/s 762 mmHg 65%
    15:00 +15°C° 0 mm 2 m/s 762 mmHg 67%
    16:00 +14°C° 0 mm 2 m/s 762 mmHg 72%
    17:00 +13°C° 0 mm 2 m/s 763 mmHg 78%
    18:00 +12°C° 0 mm 1 m/s 763 mmHg 83%
    19:00 +12°C° 0 mm 1 m/s 764 mmHg 83%
    20:00 +12°C° 0 mm 1 m/s 764 mmHg 83%
    21:00 +12°C° 0 mm 1 m/s 765 mmHg 83%
    22:00 +12°C° 0 mm 1 m/s 765 mmHg 83%
    23:00 +11°C° 0 mm 1 m/s 765 mmHg 83%
    Voir plus